Overview Statistics Trail Chart Weather Telemetry Raw packets
 

This is the latest recevied weather packets stored in our database for station/object SO5BO-13. If no packets are shown the sender has not sent any weather packets the latest 10 day(s).

<< 1 2 3 4 >>
Time Temp. Humidity Pressure Rain* Wind** Luminosity Snow
1788442062 23.33° C 57% 1017.5 hPa 0 mm - 159 W/m² -
1788441762 23.33° C 57% 1017.5 hPa 0 mm - 148 W/m² -
1788441462 23.33° C 57% 1017.3 hPa 0 mm - 171 W/m² -
1788441162 23.33° C 57% 1017.6 hPa 0 mm - 340 W/m² -
1788440862 23.33° C 58% 1017.6 hPa 0 mm - 345 W/m² -
1788440562 23.33° C 57% 1017.6 hPa 0 mm - 324 W/m² -
1788440262 23.33° C 57% 1017.8 hPa 0 mm - 285 W/m² -
1788439962 23.33° C 57% 1017.8 hPa 0 mm - 351 W/m² -
1788439662 23.33° C 56% 1017.9 hPa 0 mm - 137 W/m² -
1788439362 23.89° C 57% 1017.8 hPa 0 mm - 403 W/m² -
1788439062 23.89° C 57% 1018 hPa 0 mm - 433 W/m² -
1788438762 23.33° C 57% 1017.8 hPa 0 mm - 427 W/m² -
1788438462 23.89° C 57% 1018 hPa 0 mm - 418 W/m² -
1788438162 23.89° C 57% 1017.9 hPa 0 mm - 428 W/m² -
1788437862 23.33° C 58% 1018 hPa 0 mm - 488 W/m² -
1788437562 23.33° C 59% 1017.9 hPa 0 mm - 514 W/m² -
1788437262 22.78° C 59% 1018 hPa 0 mm - 531 W/m² -
1788436962 22.78° C 59% 1018.1 hPa 0 mm - 498 W/m² -
1788436662 22.78° C 59% 1018.2 hPa 0 mm - 432 W/m² -
1788436362 22.78° C 58% 1018.4 hPa 0 mm - 127 W/m² -
1788436062 23.33° C 58% 1018.4 hPa 0 mm - 178 W/m² -
1788435762 22.78° C 59% 1018.3 hPa 0 mm - 257 W/m² -
1788435462 22.78° C 59% 1018.5 hPa 0 mm - 283 W/m² -
1788435162 22.22° C 60% 1018.3 hPa 0 mm - 517 W/m² -
1788434862 22.22° C 60% 1018.2 hPa 0 mm - 533 W/m² -

* Rain latest hour (hover to see other rain measurements)
** Current wind speed in m/s (hover to see current wind gust speed)